Weather History for East Milton, MA

Change the Weather History Date:

Sunday, November 25, 2012

  Actual Average (KBOS) Record (KBOS)
Temperature  
Mean Temperature 32 °F 42 °F  
Max Temperature 37 °F 48 °F 70 °F (1979)
Min Temperature 28 °F 35 °F 13 °F (1938)
Degree Days  
Heating Degree Days 32 23  
Month to date heating degree days 488  
Since 1 July heating degree days 935  
Cooling Degree Days 0 0  
Month to date cooling degree days 0  
Year to date cooling degree days 747  
Moisture  
Dew Point 16 °F    
Average Humidity 53    
Maximum Humidity 67    
Minimum Humidity 42    
Precipitation  
Precipitation 0.00 in 0.14 in 2.76 in (1983)
Month to date precipitation 3.31  
Year to date precipitation 39.31  
Sea Level Pressure  
Sea Level Pressure 29.79 in    
Wind  
Wind Speed 16 mph (West)    
Max Wind Speed 25 mph    
Max Gust Speed 36 mph    
T = Trace of Precipitation, MM = Missing Value Source: NWS Daily Summary

Daily Weather History Graph

Daily Weather History Graph

Search for Another Location

Airport:

Trip Planner

Search our weather history database for the weather conditions in past years. The results will help you decide how hot, cold, wet, or windy it might be!

Date:

Astronomy

Nov. 25, 2012 Rise Set
Actual Time 6:47 AM EST 4:15 PM EST
Civil Twilight 6:16 AM EST 4:46 PM EST
Nautical Twilight 5:41 AM EST 5:20 PM EST
Astronomical Twilight 5:08 AM EST 5:54 PM EST
Moon 2:32 PM EST 3:56 AM EST
Length of Visible Light 10h 29m
Length of Day
9h 28m
Waxing Gibbous, 93% of the Moon is Illuminated
Nov 25
Waxing Gibbous
Nov 28
Full
Dec 6
Last Quarter
Dec 13
New
Dec 20
First Quarter

Hourly Weather History & Observations

Time (EST) Temp. Windchill Dew Point Humidity Pressure Visibility Wind Dir Wind Speed Gust Speed Precip Events Conditions
12:54 AM 28.9 °F 18.6 °F 15.1 °F 56% 29.68 in - West 12.7 mph 21.9 mph N/A   Unknown
1:54 AM 30.0 °F 20.0 °F 15.1 °F 54% 29.71 in - West 12.7 mph 24.2 mph N/A   Unknown
2:54 AM 28.9 °F 17.3 °F 14.0 °F 54% 29.71 in - West 16.1 mph 23.0 mph N/A   Unknown
3:54 AM 28.9 °F 17.3 °F 14.0 °F 54% 29.71 in - West 16.1 mph 27.6 mph N/A   Unknown
4:54 AM 28.9 °F 16.9 °F 14.0 °F 54% 29.74 in - West 17.3 mph 32.2 mph N/A   Unknown
5:54 AM 28.0 °F 14.6 °F 14.0 °F 56% 29.76 in - West 20.7 mph 26.5 mph N/A   Unknown
6:54 AM 28.0 °F 18.1 °F 14.0 °F 56% 29.78 in - West 11.5 mph - N/A   Unknown
7:54 AM 28.9 °F 17.3 °F 12.9 °F 51% 29.80 in - West 16.1 mph 26.5 mph N/A   Unknown
8:54 AM 30.9 °F 19.1 °F 15.1 °F 52% 29.80 in - West 18.4 mph 31.1 mph N/A   Unknown
9:54 AM 34.0 °F 21.3 °F 15.1 °F 46% 29.79 in - West 25.3 mph 35.7 mph N/A   Unknown
10:54 AM 34.0 °F 23.0 °F 14.0 °F 44% 29.77 in - West 18.4 mph 35.7 mph N/A   Unknown
11:54 AM 36.0 °F 24.2 °F 15.1 °F 43% 29.75 in - West 24.2 mph 33.4 mph N/A   Unknown
12:54 PM 36.0 °F 25.3 °F 15.1 °F 43% 29.75 in - West 19.6 mph 33.4 mph N/A   Unknown
1:54 PM 37.0 °F 26.7 °F 16.0 °F 42% 29.75 in - West 19.6 mph 35.7 mph N/A   Unknown
2:54 PM 36.0 °F 25.6 °F 17.1 °F 46% 29.75 in - West 18.4 mph 34.5 mph N/A   Unknown
3:54 PM 35.1 °F 23.8 °F 17.1 °F 48% 29.78 in - West 20.7 mph 33.4 mph N/A   Unknown
4:54 PM 34.0 °F 25.0 °F 18.0 °F 52% 29.80 in - West 12.7 mph 20.7 mph N/A   Unknown
5:54 PM 33.1 °F 23.0 °F 19.0 °F 56% 29.83 in - West 15.0 mph 24.2 mph N/A   Unknown
6:54 PM 32.0 °F 23.6 °F 19.0 °F 59% 29.84 in - WSW 10.4 mph - N/A   Unknown
7:54 PM 30.9 °F 22.2 °F 19.0 °F 61% 29.86 in - WSW 10.4 mph - N/A   Unknown
8:54 PM 30.9 °F 22.8 °F 18.0 °F 59% 29.87 in - WSW 9.2 mph - N/A   Unknown
9:54 PM 30.9 °F 21.2 °F 18.0 °F 59% 29.87 in - WSW 12.7 mph 19.6 mph N/A   Unknown
10:54 PM 30.0 °F 18.3 °F 19.9 °F 66% 29.88 in - WSW 17.3 mph 24.2 mph N/A   Unknown
11:54 PM 30.9 °F 21.2 °F 21.0 °F 67% 29.89 in - WSW 12.7 mph 20.7 mph N/A   Unknown